Zurück zum Katalog

SL-16 R/B

AktivLEO
NORAD 22803·ROCKET BODY·🇷🇺 Russia

Gestartet Sep 16, 1993 von Baikonur Cosmodrome

Loading…

Nächste Überflüge (nächste 24 Stunden)

TLE

AktuellSource: Space-Track

Epoche: Sep 14, 2026, 21:57 UTC

1 22803U 93059B   26257.91488436 -.00000175  00000-0 -62804-4 0  9995
2 22803  70.9923 332.0797 0019445 280.5992  79.2942 14.17255980706341

Verfolge SL-16 R/B in Echtzeit mit AllMySat

Download on the App Store